Preview of NWS' New Version of Forecast
This preview is not operational and should not be used for support decisions.

Regional Weather Roundup (RWR)

Issued by National Weather Service (NWS)

                            
000
ASUS46 KPQR 182010
RWROR 

OREGON REGIONAL WEATHER ROUNDUP
NATIONAL WEATHER SERVICE PORTLAND OR
1200 PM PST MON FEB 18 2019

NOTE: "FAIR" INDICATES FEW OR NO CLOUDS BELOW 12,000 FEET WITH
NO SIGNIFICANT WEATHER AND/OR OBSTRUCTIONS TO VISIBILITY.

ORZ001>013-182100-
NORTHWEST OREGON

  
CITY           SKY/WX    TMP DP  RH WIND       PRES   REMARKS
ASTORIA        CLOUDY    42  38  85 N6        30.42F                  
TILLAMOOK      CLOUDY    43  34  70 CALM      30.45F                  
PORTLAND       PTSUNNY   39  34  82 CALM      30.45F HAZE             
VANCOUVER WA   CLOUDY    39  34  82 W5        30.45F                  
SCAPPOOSE      CLOUDY    36  34  92 CALM      30.45S FOG              
HILLSBORO      CLOUDY    37  33  85 CALM      30.44S                  
AURORA         CLOUDY    36  34  92 W5        30.46F FOG              
MCMINNVILLE    CLOUDY    34  33  96 CALM      30.45S                  
SALEM          MOSUNNY   39  33  79 S6        30.44F                  
CORVALLIS      CLOUDY    37  35  92 S5        30.46S                  
EUGENE         PTSUNNY   38  33  82 W3        30.45F                  
$$

ORZ021-028-182100-
SOUTHWEST OREGON

  
CITY           SKY/WX    TMP DP  RH WIND       PRES   REMARKS
NORTH BEND     SUNNY     46  33  60 VRB3      30.45F                  
BROOKINGS      SUNNY     48  31  51 VRB3      30.38F                  
ROSEBURG       CLOUDY    41  31  67 SE5       30.44F                  
SEXTON SUMMIT  CLOUDY    27  26  96 CALM      30.27S FOG              
GRANTS PASS    CLOUDY    39  28  65 VRB3      30.43                   
MEDFORD        MOSUNNY   40  27  59 W8        30.39S                  
$$

ORZ014>016-041-182100-
COLUMBIA GORGE

  
CITY           SKY/WX    TMP DP  RH WIND       PRES   REMARKS
TROUTDALE      CLOUDY    40  34  79 NW3       30.44F                  
HOOD RIVER     PTSUNNY   39  32  75 CALM      30.40S                  
THE DALLES     CLOUDY    35  28  75 E6        30.42S                  
$$

ORZ029>031-041-044-049-050-061>064-502-503-505>511-182100-
EASTERN OREGON

  
CITY           SKY/WX    TMP DP  RH WIND       PRES   REMARKS
MADRAS         NOT AVBL                                               
REDMOND        CLOUDY    34  22  61 SW8       30.28F                  
BEND           CLOUDY    32  19  59 SW7       30.27F                  
PRINEVILLE     PTSUNNY   32  19  59 CALM      30.27                   
KLAMATH FALLS  SUNNY     31  18  58 NW9       30.23S                  
LAKEVIEW       MIX PCPN  30  17  58 N13       30.19S WCI  20          
HERMISTON      CLOUDY    33  20  58 W3        30.40F                  
PENDLETON      PTSUNNY   32  22  66 NW9       30.35S                  
JOHN DAY       MOSUNNY   30  17  58 N7        30.22                   
MEACHAM        PTSUNNY   24  16  71 VRB5      30.21S                  
LA GRANDE      PTSUNNY   28  17  63 NW16      30.26F WCI  16          
BAKER CITY     SUNNY     31  17  56 N17       30.20F WCI  19          
BURNS          PTSUNNY   28  14  55 W14       30.18S WCI  17          
ROME             N/A     30  14  51 NW13      30.13F WCI  20          
ONTARIO        MOSUNNY   38  19  46 NW18      30.23S WCI  28          
$$